Notices

What's New in latest Release from April 7th, 2021:

- Updated Glossary, including Speed of Maximum Gust, and Total Hourly Precipitation

- Updated national and regional climate services offices contacts and prices information

- Addition of station inventory lists for 1981-2010, 1971-2000, and 1961-1990 Normals.

If you haven't already, please take our survey and provide feedback about our website: https://eccc.sondage-survey.ca/f/LanguageSelection.aspx?s=442ca660-fcf1-47c0-95a9-59707d6fd709

Hourly Data Report for January 18, 2003

TORONTO CITY
ONTARIO

43°40'00.000" N
79°24'00.000" W
112.50 m
6158355
71508
XTO

Download Data

Hourly Data (January 2003)
Hourly Data Report for January 18, 2003
TIME
LST
Temp Definition
°C
Dew Point Definition
°C
Rel Hum Definition
%
Precip. Amount Definition
mm

Wind Dir Definition
10's deg

Wind Spd Definition
km/h
Visibility Definition
km
Stn Press Definition
kPa
Hmdx Definition


Wind Chill Definition


Weather Definition


00:00 -12.8 -17.0 71     0 LegendMM 100.54     LegendNANA
01:00
02:00 -12.8 -16.4 74     0 LegendMM 100.49     LegendNANA
03:00 -11.6 -14.9 76     0 LegendMM 100.48     LegendNANA
04:00
05:00 -11.3 -17.4 61     0 LegendMM 100.36     LegendNANA
06:00 -12.1 -18.0 61     0 LegendMM 100.32     LegendNANA
07:00 -11.8 -17.9 60     0 LegendMM 100.29     LegendNANA
08:00 -10.7 -15.9 66     0 LegendMM 100.23     LegendNANA
09:00 -9.0 -13.0 73     0 LegendMM 100.16     LegendNANA
10:00 -8.1 -12.9 68     0 LegendMM 100.12     LegendNANA
11:00 -6.8 -12.0 66     0 LegendMM 100.04     LegendNANA
12:00 -5.2 -11.2 63     0 LegendMM 99.90     LegendNANA
13:00 -4.9 -10.9 63     0 LegendMM 99.75     LegendNANA
14:00 -4.6 -11.5 58     0 LegendMM 99.65     LegendNANA
15:00 -5.2 -11.0 64     0 LegendMM 99.59     LegendNANA
16:00 -5.4 -9.9 71     0 LegendMM 99.55     LegendNANA
17:00 -5.5 -11.1 65     0 LegendMM 99.53     LegendNANA
18:00 -5.3 -10.9 65     0 LegendMM 99.55     LegendNANA
19:00 -5.0 -10.5 65     0 LegendMM 99.53     LegendNANA
20:00 -5.8 -9.4 76     0 LegendMM 99.55     LegendNANA
21:00 -6.2 -10.0 74     0 LegendMM 99.53     LegendNANA
22:00 -6.9 -12.3 65     0 LegendMM 99.50     LegendNANA
23:00 -7.4 -12.2 68     0 LegendMM 99.48     LegendNANA

Notes on Data Quality.

Legend

  • E = Estimated
  • M = Missing
  • NA = Not Available*
  • [empty] = Indicates an unobserved value
Date modified: